Regional Weather Roundup
Issued by NWS

Current Version | Previous Version | Text Only | Print | Product List | Glossary On
Versions: 1 2 3 4 5 6 7 8 9 10 11 12 13 14 15 16 17 18 19 20 21 22 23 24 25 26 27 28 29 30 31 32 33 34 35 36 37 38 39 40 41 42 43 44 45 46 47 48 49 50
000
ASUS44 KFWD 160215
RWRTX
NORTH TEXAS HOURLY WEATHER ROUNDUP
NATIONAL WEATHER SERVICE FORT WORTH TX
900 PM CDT TUE OCT 15 2019

NOTE: "FAIR" INDICATES FEW OR NO CLOUDS BELOW 12,000 FEET WITH NO
SIGNIFICANT WEATHER AND/OR OBSTRUCTIONS TO VISIBILITY.

TXZ118-119-160300-
DALLAS/FORT WORTH METROPLEX

CITY           SKY/WX    TMP DP  RH WIND       PRES   REMARKS
DFW AIRPORT    MOCLDY    78  70  76 E6        29.84R
DALLAS LOVE    MOCLDY    80  71  74 VRB5      29.85R
FTW MEACHAM    FAIR      79  58  48 NW16      29.86R
DAL-EXECUTIVE  FAIR      77  70  79 S3        29.84R
FTW-ALLIANCE   MOCLDY    79  64  60 N22G37    29.87R
FTW-NAS-JRB    MOCLDY    80  57  45 NW17      29.87R
FTW-SPINKS     FAIR      77  70  79 W6        29.88R
ARLINGTON      FAIR      78  71  79 S5        29.85R
GRAND PRAIRIE  CLEAR     79  70  73 SW5       29.86R
ADDISON        PTCLDY    79  66  65 E6        29.87R
MESQUITE       FAIR      73  72  96 CALM      29.86R
LANCASTER      FAIR      74  70  87 CALM      29.86R
$$

TXZ091>094-102>105-117-120-121-131>134-160300-
NORTH CENTRAL TEXAS

CITY           SKY/WX    TMP DP  RH WIND       PRES   REMARKS
SHRMAN/DENISON CLOUDY    72  69  90 N16G24    29.96R
GAINESVILLE    CLOUDY    70  60  70 N16G28    29.97R
BOWIE          FAIR      69  59  70 N14G22    29.97R
BRIDGEPORT     FAIR      74  61  63 N17G24    29.96R
DECATUR        FAIR      73  63  68 N14G25    29.93R
DENTON         FAIR      75  64  68 N22G35    29.89R
MCKINNEY       FAIR      72  63  73 N12       29.88R
BONHAM         CLOUDY    70  68  93 N7        29.91R
GREENVILLE     MOCLDY    77  77 100 S5        29.88R
ROCKWALL       RAIN      76  72  88 W5        29.89R
TERRELL        FAIR      74  71  91 S5        29.86R
WAXAHACHIE     FAIR      74  74  99 CALM      29.87R
CLEBURNE       FAIR      75  73  94 W5        29.90R
GRANBURY       FAIR      72  67  84 W8        29.90R
$$

TXZ083>090-098>101-113>116-127>130-139>142-154-155-160300-
WESTERN NORTH TEXAS

CITY           SKY/WX    TMP DP  RH WIND       PRES   REMARKS
WICHITA FALLS  FAIR      68  42  38 N23       30.01R
WF-KICKAPOO    MOCLDY    70  42  35 N23G29    30.03R
VERNON         FAIR      66  38  35 N15       30.07R
ABILENE        FAIR      72  50  45 N15       30.02R
ABILENE-DYESS  FAIR      71  48  43 N17       30.03R
GRAHAM         FAIR      70  56  61 N14G21    29.97R
BRECKENRIDGE   FAIR      73  54  52 MISG      29.99R
CISCO          FAIR      72  55  56 N16G24    29.98R
EASTLAND       FAIR      71  56  60 N15       29.98R
RANGER         FAIR      72  57  58 N13G21    29.97R
MINERAL WELLS  FAIR      71  62  73 N15       29.91R
STEPHENVILLE   FAIR      74  58  56 NW9       29.95R
COMANCHE       FAIR      75  46  34 N10G18    29.95R
BROWNWOOD      FAIR      75  46  35 N8        29.95R
COLEMAN        FAIR      74  43  32 N9        29.98R
BRADY          FAIR      70  66  88 SW5       29.93R
$$

TXZ143>147-156>162-174-175-160300-
CENTRAL TEXAS

CITY           SKY/WX    TMP DP  RH WIND       PRES   REMARKS
WACO           FAIR      73  71  93 SW6       29.86R
WACO-TSTC      CLEAR     73  72  94 S5        29.87R
WACO-MCGREGOR  FAIR     N/A N/A N/A CALM      29.87R
HILLSBORO      FAIR      74  74 100 S3        29.86R
CORSICANA      FAIR      73  72  96 S6        29.87R
MEXIA          FAIR      72  71  98 CALM      29.86S
HEARNE         FAIR      79  74  84 CALM      29.88R
CAMERON        FAIR      77  73  85 CALM      29.86S
TEMPLE         FAIR      73  73 100 S5        29.88R
KILLEEN        MOCLDY    74  71  89 SE6       29.88R
KILLEEN-SKYLRK FAIR      74  71  91 MISG      29.89R
FORT HOOD      FAIR      75  71  88 CALM      29.89R
GATESVILLE     FAIR      73  73 100 CALM      29.90R
HAMILTON       FAIR      74  72  91 W7        29.92R
LAMPASAS       FAIR      72  69  90 SE3       29.89S
$$

TXZ095>097-106>112-122>126-135>138-148>153-164>167-160300-
EAST TEXAS

CITY           SKY/WX    TMP DP  RH WIND       PRES   REMARKS
PARIS          LGT RAIN  68  65  90 N9        29.89R
SULPHUR SPRNGS CLOUDY    73  63  69 NE7       29.90R
MOUNT PLEASANT MOCLDY    72  71  94 CALM      29.90R
GILMER         CLOUDY    71  71  99 CALM      29.89R
MINEOLA        FAIR      72  70  94 CALM      29.88R
TYLER          FAIR      74  72  93 S6        29.87R
LONGVIEW       FAIR      70  70 100 S5        29.86R
MARSHALL       FAIR      70  68  94 SW3       29.89R
ATHENS         MOCLDY    73  72  94 CALM      29.86R
PALESTINE      FAIR      74  74 100 CALM      29.88S FOG
JACKSONVILLE   FAIR      73  72  95 S3        29.90R
CENTER         FAIR      70  69  95 CALM      29.89R
NACOGDOCHES    MOCLDY    73  73 100 SE3       29.89R
LUFKIN         FAIR      74  72  93 CALM      29.88S
$$

SUPPLEMENTAL OBSERVATIONS (NWS FORT WORTH AREA)

CITY           SKY/WX    TMP DP  RH WIND       PRES   REMARKS
CADDO GRASSLND   N/A     66  63  88 N3          N/A
LBJ GRASSLAND    N/A    N/A N/A N/A N15G26      N/A
POSSUM KINGDOM   N/A     72  55  56 N14G24      N/A
GRANBURY         N/A     72  66  83 NW9         N/A
COMANCHE         N/A     75  45  33 NW12G26     N/A
MCGREGOR         N/A     73  70  88 W5          N/A
TEMPLE           N/A     75  72  88 S3          N/A
LAKE LIMESTONE   N/A     73  72  94 E2          N/A
PALESTINE        N/A     73  72  94 CALM        N/A
$$

SUPPLEMENTAL OBSERVATIONS (NWS NORMAN AREA)

CITY           SKY/WX    TMP DP  RH WIND       PRES   REMARKS
GOODLETT         N/A     61  35  37 N12       30.10
ODELL            N/A     64  37  38 N20       30.08
CROWELL          N/A     65  38  37 N13       30.09
KNOX CITY        N/A     68  44  41 N13       30.07
SEYMOUR          N/A     67  42  40 N18       30.05
MILLERS CREEK    N/A     68  45  42 VRB13       N/A
$$

SUPPLEMENTAL OBSERVATIONS (NWS SAN ANGELO AREA)

CITY           SKY/WX    TMP DP  RH WIND       PRES   REMARKS
WEINERT          N/A     67  43  42 N16       30.06
HASKELL          N/A     67  45  44 N20       30.04
THROCKMORTON     N/A     68  48  48 N10       30.03
STAMFORD         N/A     69  51  51 N15       30.04
CLYDE            N/A     69  54  60 N13       30.04
HAMBY            N/A     72  52  49 N14G22      N/A
$$

SUPPLEMENTAL OBSERVATIONS (NWS SHREVEPORT AREA)

CITY           SKY/WX    TMP DP  RH WIND       PRES   REMARKS
TEXARKANA        N/A     73  72  94 NE2         N/A
LINDEN           N/A     72  68  88 S1          N/A
CADDO LAKE       N/A     70  68  94 CALM        N/A
LUFKIN           N/A     73  72  94 MISG        N/A
N SABINE NF      N/A     72  70  94 MISG        N/A
$$

SUPPLEMENTAL OBSERVATIONS ARE A COLLECTION OF AUTOMATED INSTRUMENTS
THAT ARE MAINTAINED BY A VARIETY OF FEDERAL AND STATE AGENCIES.
CERTAIN ELEMENTS...SUCH AS HUMIDITY VALUES AND SUSTAINED WIND
SPEEDS...MAY BE APPROXIMATED.




USA.gov is the U.S. government's official web portal to all federal, state and local government web resources and services.